SCP
0 0 0 0 0 0 0 0 0 0 0 0 0 0 0 0 0 0 0 0 0 0 0 0 0 0 0 0 0 0 0 0 0 0 0 0 0 0 0 0 0 0 0 0
0 0 0 0 0 0 0 0 0 0 0 0 0 0 0 0 0 0 0 0 0 0 0 0 0 0 0 0 0 0 0 0 0 0 0 0 0 0 0 0 0 0 0 0
0 0 0 0 0 0 0 0 0 0 0 0 0 0 0 0 0 0 0 0 0 0 0 0 0 0 0 0 0 0 0 0 0 0 0 0 0 0 0 0 0 0 0 0
0 0 0 0 0 0 0 0 0 0 0 0 0 0 0 0 0 0 0 0 0 0 0 0 0 0 0 0 0 0 0 0 0 0 0 0 0 0 0 0 0 0 0 0
0 0 0 0 0 0 0 0 0 0 0 0 0 0 0 0 0 0 0 0 0 0 0 0 0 0 0 0 0 0 0 0 0 0 0 0 0 0 0 0 0 0 0 0
0 0 0 0 0 0 0 0 0 0 0 0 0 0 0 0 0 0 0 0 0 0 0 0 0 0 0 0 0 0 0 0 0 0 0 0 0 0 0 0 0 0 0 0
0 0 0 0 0 0 0 0 0 0 0 0 0 0 0 0 0 0 0 0 0 0 0 0 0 0 0 0 0 0 0 0 0 0 0 0 0 0 0 0 0 0 0 0
0 0 0 0 0 0 0 0 0 0 0 0 0 0 0 0 0 0 0 0 0 0 0 0 0 0 0 0 0 0 0 0 0 0 0 0 0 0 0 0 0 0 0 0
0 0 0 0 0 0 0 0 0 0 0 0 0 0 0 0 0 0 0 0 0 0 0 0 0 0 0 0 0 0 0 0 0 0 0 0 0 0 0 0 0 0 0 0
0 0 0 0 0 0 0 0 0 0 0 0 0 0 0 0 0 0 0 0 0 0 0 0 0 0 0 0 0 0 0 0 0 0 0 0 0 0 0 0 0 0 0 0
0 0 0 0 0 0 0 0 0 0 0 0 0 0 0 0 0 0 0 0 0 0 0 0 0 0 0 0 0 0 0 0 0 0 0 0 0 0 0 0 0 0 0 0
0 0 0 0 0 0 0 0 0 0 0 0 0 0 0 0 0 0 0 0 0 0 0 0 0 0 0 0 0 0 0 0 0 0 0 0 0 0 0 0 0 0 0 0
0 0 0 0 0 0 0 0 0 0 0 0 0 0 0 0 0 0 0 0 0 0 0 0 0 0 0 0 0 0 0 0 0 0 0 0 0 0 0 0 0 0 0 0
0 0 0 0 0 0 0 0 0 0 0 0 0 0 0 0 0 0 0 0 0 0 0 0 0 0 0 0 0 0 0 0 0 0 0 0 0 0 0 0 0 0 0 0
0 0 0 0 0 0 0 0 0 0 0 0 0 0 0 0 0 0 0 0 0 0 0 0 0 0 0 0 0 0 0 0 0 0 0 0 0 0 0 0 0 0 0 0
0 0 0 0 0 0 0 0 0 0 0 0 0 0 0 0 0 0 0 0 0 0 0 0 0 0 0 0 0 0 0 0 0 0 0 0 0 0 0 0 0 0 0 0
0 0 0 0 0 0 0 0 0 0 0 0 0 0 0 0 0 0 0 0 0 0 0 0 0 0 0 0 0 0 0 0 0 0 0 0 0 0 0 0 0 0 0 0
0 0 0 0 0 0 0 0 0 0 0 0 0 0 0 0 0 0 0 0 0 0 0 0 0 0 0 0 0 0 0 0 0 0 0 0 0 0 0 0 0 0 0 0
0 0 0 0 0 0 0 0 0 0 0 0 0 0 0 0 0 0 0 0 0 0 0 0 0 0 0 0 0 0 0 0 0 0 0 0 0 0 0 0 0 0 0 0
0 0 0 0 0 0 0 0 0 0 0 0 0 0 0 0 0 0 0 0 0 0 0 0 0 0 0 0 0 0 0 0 0 0 0 0 0 0 0 0 0 0 0 0
0 0 0 0 0 0 0 0 0 0 0 0 0 0 0 0 0 0 0 0 0 0 0 0 0 0 0 0 0 0 0 0 0 0 0 0 0 0 0 0 0 0 0 0
0 0 0 0 0 0 0 0 0 0 0 0 0 0 0 0 0 0 0 0 0 0 0 0 0 0 0 0 0 0 0 0 0 0 0 0 0 0 0 0 0 0 0 0
0 0 0 0 0 0 0 0 0 0 0 0 0 0 0 0 0 0 0 0 0 0 0 0 0 0 0 0 0 0 0 0 0 0 0 0 0 0 0 0 0 0 0 0
0 0 0 0 0 0 0 0 0 0 0 0 0 0 0 0 0 0 0 0 0 0 0 0 0 0 0 0 0 0 0 0 0 0 0 0 0 0 0 0 0 0 0 0
0 0 0 0 0 0 0 0 0 0 0 0 0 0 0 0 0 0 0 0 0 0 0 0 0 0 0 0 0 0 0 0 0 0 0 0 0 0 0 0 0 0 0 0
0 0 0 0 0 0 0 0 0 0 0 0 0 0 0 0 0 0 0 0 0 0 0 0 0 0 0 0 0 0 0 0 0 0 0 0 0 0 0 0 0 0 0 0
0 0 0 0 0 0 0 0 0 0 0 0 0 0 0 0 0 0 0 0 0 0 0 0 0 0 0 0 0 0 0 0 0 0 0 0 0 0 0 0 0 0 0 0
Wind_Speed_500mb
17 23 23 24 25 26 28 29 27 34 34 31 26 22 28 22 27 39 45 43 41 44 40 34 29 30 33 36 40 39 37 35 36 31 30 27 28 30 33 36 38 39 39 38
8 13 18 26 32 33 32 20 27 26 31 17 19 26 26 38 43 42 44 39 36 34 35 33 34 37 37 38 40 36 35 37 35 31 30 30 32 32 36 37 37 37 37 37
8 21 25 10 4 2 9 13 16 21 22 28 21 31 39 40 39 33 30 31 30 33 35 37 40 39 41 42 41 42 40 38 34 30 31 31 32 35 35 37 37 38 38 38
6 11 6 8 12 24 20 16 17 22 22 16 25 46 61 20 19 29 26 35 32 36 40 41 46 44 46 46 48 50 51 40 35 30 32 32 33 34 36 36 37 38 39 38
4 10 26 20 7 7 17 26 26 14 14 33 45 45 25 12 23 35 31 30 39 41 44 48 50 49 50 54 54 54 50 45 36 36 32 33 33 34 36 37 39 41 40 37
5 6 7 7 3 2 11 23 17 20 38 44 45 25 20 36 40 34 31 38 43 45 49 51 55 53 57 60 60 57 51 39 36 38 34 30 31 33 35 38 41 45 43 48
12 11 14 18 4 8 11 7 28 32 21 22 18 26 37 38 31 34 40 44 46 49 51 56 56 57 60 62 61 56 49 39 39 35 31 29 29 32 37 41 45 40 53 51
8 8 12 7 10 2 18 34 18 16 14 17 25 29 29 32 37 41 45 50 51 53 55 58 58 59 61 63 60 53 44 37 32 42 18 25 29 35 38 40 40 39 48 48
16 10 24 24 29 22 15 15 18 13 14 19 25 28 31 37 41 48 52 56 56 56 56 57 56 57 61 60 56 49 49 45 39 27 23 25 26 34 36 37 34 43 39 39
16 16 33 27 22 11 11 14 14 14 15 19 25 29 36 44 50 55 57 57 56 55 56 58 58 61 57 55 50 43 36 34 30 24 23 25 28 32 33 32 33 31 37 38
26 38 31 7 13 9 21 14 9 10 17 21 27 38 45 51 53 55 56 54 55 54 56 58 61 60 56 47 34 34 35 29 28 25 23 25 25 28 28 28 40 41 36 34
16 17 6 6 9 22 9 7 9 16 20 28 38 46 49 51 53 54 56 57 57 60 61 61 60 55 47 35 28 32 31 27 24 22 23 28 22 23 28 35 38 43 43 43
22 13 7 8 10 7 8 7 13 22 29 39 45 48 50 53 56 58 59 59 60 61 59 56 54 44 37 32 32 32 33 25 19 23 23 20 18 24 26 26 34 39 40 46
8 7 8 8 4 6 4 14 22 29 35 41 45 46 48 52 57 58 59 59 58 56 51 47 45 37 29 35 25 34 28 21 20 15 16 16 21 22 21 24 28 25 33 43
7 4 4 9 5 5 13 22 29 35 39 42 42 44 45 51 57 61 60 58 54 49 48 42 41 34 36 26 26 21 23 17 22 18 17 20 20 21 20 23 25 26 29 26
16 12 7 2 6 13 21 27 32 37 39 41 42 43 49 55 58 58 55 49 54 61 50 54 42 28 24 18 20 18 22 24 18 15 15 18 18 19 20 22 22 24 27 28
13 9 5 9 15 21 25 28 32 36 39 40 45 62 66 66 70 62 63 60 50 49 46 52 32 21 26 25 18 19 18 18 23 18 17 19 18 20 23 21 21 22 24 35
8 4 7 13 20 24 26 30 32 35 40 52 59 63 64 67 68 66 65 55 45 45 47 39 23 22 25 18 22 19 20 18 19 20 23 19 22 21 20 22 22 23 23 25
4 8 14 19 23 25 28 33 35 43 49 54 60 64 65 66 62 59 58 50 46 45 40 37 23 23 23 21 22 18 22 19 20 21 21 25 24 23 23 23 23 22 22 21
9 16 20 26 31 34 39 42 42 45 49 54 59 61 67 61 54 52 51 51 44 37 36 29 25 27 19 18 21 16 19 22 19 19 21 23 25 25 27 24 26 25 24 23
26 32 37 39 38 37 40 42 44 47 53 53 56 58 57 57 53 49 51 51 44 37 29 23 24 13 17 22 20 19 20 19 14 18 21 24 27 27 27 25 25 27 25 25
29 35 40 37 39 45 42 42 44 51 54 59 53 49 50 51 53 47 43 41 44 39 29 24 23 18 18 30 19 19 21 20 19 19 20 20 23 28 26 23 24 25 25 23
39 39 39 39 41 44 44 44 46 48 54 53 48 44 44 49 45 45 53 44 44 28 25 27 24 27 28 29 21 18 23 26 23 23 25 26 27 26 25 25 25 25 24 23
35 36 40 42 44 44 45 36 37 51 52 52 42 41 48 49 52 45 47 52 37 26 26 26 31 31 33 31 26 25 27 31 33 29 27 25 28 32 30 27 27 26 25 27
44 45 46 42 38 31 31 34 38 38 42 45 45 49 48 48 47 45 49 42 30 29 31 32 27 28 33 29 30 29 31 34 33 29 30 28 27 28 30 32 31 30 29 27
39 36 37 40 39 36 32 33 42 43 48 53 50 52 54 50 48 41 41 35 31 32 33 33 34 35 31 29 32 35 36 34 32 31 30 30 29 28 28 29 31 32 31 30
35 38 37 37 32 31 33 36 50 55 52 51 53 52 54 55 49 42 40 37 34 38 44 46 46 46 44 38 35 39 36 35 33 32 32 31 29 30 31 31 31 29 32 33
Wind_Direction_500mb
298 300 304 300 289 278 267 260 255 278 286 309 329 353 327 321 315 318 321 321 317 313 311 308 304 305 306 308 313 314 315 315 317 312 312 310 309 313 313 311 310 309 305 304
280 294 311 305 289 276 264 281 278 293 298 350 323 321 317 332 326 312 316 322 313 313 310 307 307 305 305 308 312 312 310 312 309 304 308 309 309 311 312 311 311 309 308 306
275 336 322 278 220 74 301 264 266 285 288 315 317 350 345 327 307 311 324 314 310 305 305 304 307 306 306 309 313 311 307 307 306 302 303 305 309 311 312 312 312 310 310 308
292 307 302 57 260 298 289 290 283 298 308 347 349 336 323 331 343 322 315 308 303 307 307 307 307 303 308 311 312 311 306 297 297 293 297 303 307 311 313 314 314 314 312 310
264 281 294 299 74 1 327 302 296 319 355 329 333 319 312 15 335 317 308 305 308 310 310 311 308 304 306 309 308 310 308 307 300 292 293 300 305 311 314 313 314 313 312 310
174 258 268 17 27 295 307 281 48 345 326 330 326 312 328 314 320 316 311 308 308 308 310 311 310 309 306 307 307 305 303 296 295 288 285 291 300 308 311 311 312 311 300 310
223 252 267 289 39 308 286 350 323 340 355 347 323 314 306 317 313 309 308 307 309 308 311 312 313 311 308 306 304 306 307 297 292 282 282 290 298 309 310 312 315 307 309 311
213 245 268 184 221 156 298 308 348 15 358 330 302 301 306 311 313 312 312 314 315 315 312 312 315 315 311 310 314 316 309 300 289 284 281 293 298 308 310 313 312 311 310 312
200 234 304 292 283 321 316 350 346 341 308 294 305 314 318 314 314 318 318 316 314 312 313 315 317 318 316 314 311 304 304 296 291 297 280 284 300 308 312 314 313 310 315 315
282 267 293 311 327 48 29 346 309 304 302 310 312 314 314 318 320 320 318 316 314 315 316 316 319 319 316 314 309 310 310 310 305 297 289 290 299 307 309 310 310 317 318 317
260 289 322 335 57 8 321 309 301 312 313 311 314 317 319 319 319 318 317 318 317 316 314 315 318 318 317 315 310 311 313 311 309 296 291 292 298 306 305 305 307 318 320 317
268 308 202 297 293 322 284 280 325 317 318 317 317 316 317 316 318 319 319 317 315 315 314 315 316 316 314 310 307 313 311 312 304 297 291 288 301 304 308 310 314 324 327 327
300 308 276 249 309 218 264 317 321 319 318 316 317 315 313 312 314 316 315 316 316 314 312 313 313 310 311 296 310 312 312 304 295 287 288 293 304 306 311 314 320 327 325 328
269 169 118 168 245 215 312 321 317 314 314 316 317 316 316 315 314 316 316 316 313 310 309 312 314 307 289 306 294 303 314 313 315 296 291 286 296 305 312 315 324 328 326 325
131 163 233 176 181 293 315 318 316 315 316 316 318 318 318 319 318 317 314 312 308 311 315 312 308 298 294 302 305 310 313 293 293 289 288 303 315 310 313 317 322 323 323 325
152 151 161 216 312 318 318 316 313 314 317 318 320 322 320 317 315 312 314 312 306 315 312 318 312 303 296 296 299 298 290 298 303 290 298 306 306 308 314 315 320 321 322 319
168 193 246 304 309 308 308 310 312 314 318 321 319 319 321 322 321 321 319 318 315 313 313 317 306 292 287 304 292 289 283 283 290 292 291 296 308 312 304 310 316 319 319 313
158 171 280 295 300 303 305 311 314 312 314 317 318 320 322 323 323 324 326 323 314 313 311 314 297 290 295 290 272 282 282 281 279 276 284 295 300 305 305 309 312 315 315 317
207 279 293 299 303 301 304 309 307 309 316 321 320 319 318 320 324 325 327 323 320 313 310 306 296 290 300 287 291 288 288 286 274 278 283 291 308 305 305 303 304 309 311 313
292 298 296 297 296 301 305 308 308 311 319 318 315 313 318 322 323 326 328 322 315 306 304 293 285 296 299 292 295 287 284 297 284 278 284 290 302 303 302 300 306 311 311 307
303 304 304 305 302 301 304 307 307 310 315 316 312 314 319 321 322 327 326 319 319 310 297 278 281 285 284 284 288 287 298 301 288 286 285 286 293 303 303 299 304 306 306 303
301 300 302 301 298 303 308 309 311 311 311 311 313 317 322 323 328 322 321 319 319 302 286 277 281 277 272 287 283 268 285 295 284 281 284 287 289 290 295 295 296 296 297 298
297 296 295 297 302 304 306 308 309 313 315 316 314 318 322 327 327 321 319 319 314 290 274 272 273 273 286 292 302 274 276 287 287 285 286 285 291 298 296 298 296 295 293 294
293 292 294 300 300 299 302 311 304 312 318 322 320 311 320 326 318 317 313 309 303 275 271 272 278 285 283 285 293 279 271 273 275 276 274 276 281 294 295 297 301 303 302 301
294 296 297 302 299 295 297 300 306 315 306 310 310 315 318 322 315 312 309 308 287 275 276 280 283 295 287 275 280 277 272 273 275 271 272 276 273 274 278 285 291 295 302 302
297 290 288 286 281 282 288 301 303 306 310 315 313 313 316 319 316 314 313 307 288 281 277 276 280 287 300 291 282 277 276 274 271 274 276 279 277 276 274 275 280 288 291 298
296 293 292 290 286 282 287 294 303 313 315 315 310 311 310 313 313 306 306 308 298 288 284 281 280 283 288 293 274 272 276 274 272 272 280 285 280 273 273 276 279 279 281 286
Wind_Speed_850mb
17 23 23 24 25 26 28 29 27 34 34 31 26 22 28 22 27 39 45 43 41 44 40 34 29 30 33 36 40 39 37 35 36 31 30 27 28 30 33 36 38 39 39 38
8 13 18 26 32 33 32 20 27 26 31 17 19 26 26 38 43 42 44 39 36 34 35 33 34 37 37 38 40 36 35 37 35 31 30 30 32 32 36 37 37 37 37 37
8 21 25 10 4 2 9 13 16 21 22 28 21 31 39 40 39 33 30 31 30 33 35 37 40 39 41 42 41 42 40 38 34 30 31 31 32 35 35 37 37 38 38 38
6 11 6 8 12 24 20 16 17 22 22 16 25 46 61 20 19 29 26 35 32 36 40 41 46 44 46 46 48 50 51 40 35 30 32 32 33 34 36 36 37 38 39 38
4 10 26 20 7 7 17 26 26 14 14 33 45 45 25 12 23 35 31 30 39 41 44 48 50 49 50 54 54 54 50 45 36 36 32 33 33 34 36 37 39 41 40 37
5 6 7 7 3 2 11 23 17 20 38 44 45 25 20 36 40 34 31 38 43 45 49 51 55 53 57 60 60 57 51 39 36 38 34 30 31 33 35 38 41 45 43 48
12 11 14 18 4 8 11 7 28 32 21 22 18 26 37 38 31 34 40 44 46 49 51 56 56 57 60 62 61 56 49 39 39 35 31 29 29 32 37 41 45 40 53 51
8 8 12 7 10 2 18 34 18 16 14 17 25 29 29 32 37 41 45 50 51 53 55 58 58 59 61 63 60 53 44 37 32 42 18 25 29 35 38 40 40 39 48 48
16 10 24 24 29 22 15 15 18 13 14 19 25 28 31 37 41 48 52 56 56 56 56 57 56 57 61 60 56 49 49 45 39 27 23 25 26 34 36 37 34 43 39 39
16 16 33 27 22 11 11 14 14 14 15 19 25 29 36 44 50 55 57 57 56 55 56 58 58 61 57 55 50 43 36 34 30 24 23 25 28 32 33 32 33 31 37 38
26 38 31 7 13 9 21 14 9 10 17 21 27 38 45 51 53 55 56 54 55 54 56 58 61 60 56 47 34 34 35 29 28 25 23 25 25 28 28 28 40 41 36 34
16 17 6 6 9 22 9 7 9 16 20 28 38 46 49 51 53 54 56 57 57 60 61 61 60 55 47 35 28 32 31 27 24 22 23 28 22 23 28 35 38 43 43 43
22 13 7 8 10 7 8 7 13 22 29 39 45 48 50 53 56 58 59 59 60 61 59 56 54 44 37 32 32 32 33 25 19 23 23 20 18 24 26 26 34 39 40 46
8 7 8 8 4 6 4 14 22 29 35 41 45 46 48 52 57 58 59 59 58 56 51 47 45 37 29 35 25 34 28 21 20 15 16 16 21 22 21 24 28 25 33 43
7 4 4 9 5 5 13 22 29 35 39 42 42 44 45 51 57 61 60 58 54 49 48 42 41 34 36 26 26 21 23 17 22 18 17 20 20 21 20 23 25 26 29 26
16 12 7 2 6 13 21 27 32 37 39 41 42 43 49 55 58 58 55 49 54 61 50 54 42 28 24 18 20 18 22 24 18 15 15 18 18 19 20 22 22 24 27 28
13 9 5 9 15 21 25 28 32 36 39 40 45 62 66 66 70 62 63 60 50 49 46 52 32 21 26 25 18 19 18 18 23 18 17 19 18 20 23 21 21 22 24 35
8 4 7 13 20 24 26 30 32 35 40 52 59 63 64 67 68 66 65 55 45 45 47 39 23 22 25 18 22 19 20 18 19 20 23 19 22 21 20 22 22 23 23 25
4 8 14 19 23 25 28 33 35 43 49 54 60 64 65 66 62 59 58 50 46 45 40 37 23 23 23 21 22 18 22 19 20 21 21 25 24 23 23 23 23 22 22 21
9 16 20 26 31 34 39 42 42 45 49 54 59 61 67 61 54 52 51 51 44 37 36 29 25 27 19 18 21 16 19 22 19 19 21 23 25 25 27 24 26 25 24 23
26 32 37 39 38 37 40 42 44 47 53 53 56 58 57 57 53 49 51 51 44 37 29 23 24 13 17 22 20 19 20 19 14 18 21 24 27 27 27 25 25 27 25 25
29 35 40 37 39 45 42 42 44 51 54 59 53 49 50 51 53 47 43 41 44 39 29 24 23 18 18 30 19 19 21 20 19 19 20 20 23 28 26 23 24 25 25 23
39 39 39 39 41 44 44 44 46 48 54 53 48 44 44 49 45 45 53 44 44 28 25 27 24 27 28 29 21 18 23 26 23 23 25 26 27 26 25 25 25 25 24 23
35 36 40 42 44 44 45 36 37 51 52 52 42 41 48 49 52 45 47 52 37 26 26 26 31 31 33 31 26 25 27 31 33 29 27 25 28 32 30 27 27 26 25 27
44 45 46 42 38 31 31 34 38 38 42 45 45 49 48 48 47 45 49 42 30 29 31 32 27 28 33 29 30 29 31 34 33 29 30 28 27 28 30 32 31 30 29 27
39 36 37 40 39 36 32 33 42 43 48 53 50 52 54 50 48 41 41 35 31 32 33 33 34 35 31 29 32 35 36 34 32 31 30 30 29 28 28 29 31 32 31 30
35 38 37 37 32 31 33 36 50 55 52 51 53 52 54 55 49 42 40 37 34 38 44 46 46 46 44 38 35 39 36 35 33 32 32 31 29 30 31 31 31 29 32 33
Wind_Direction_850mb
298 300 304 300 289 278 267 260 255 278 286 309 329 353 327 321 315 318 321 321 317 313 311 308 304 305 306 308 313 314 315 315 317 312 312 310 309 313 313 311 310 309 305 304
280 294 311 305 289 276 264 281 278 293 298 350 323 321 317 332 326 312 316 322 313 313 310 307 307 305 305 308 312 312 310 312 309 304 308 309 309 311 312 311 311 309 308 306
275 336 322 278 220 74 301 264 266 285 288 315 317 350 345 327 307 311 324 314 310 305 305 304 307 306 306 309 313 311 307 307 306 302 303 305 309 311 312 312 312 310 310 308
292 307 302 57 260 298 289 290 283 298 308 347 349 336 323 331 343 322 315 308 303 307 307 307 307 303 308 311 312 311 306 297 297 293 297 303 307 311 313 314 314 314 312 310
264 281 294 299 74 1 327 302 296 319 355 329 333 319 312 15 335 317 308 305 308 310 310 311 308 304 306 309 308 310 308 307 300 292 293 300 305 311 314 313 314 313 312 310
174 258 268 17 27 295 307 281 48 345 326 330 326 312 328 314 320 316 311 308 308 308 310 311 310 309 306 307 307 305 303 296 295 288 285 291 300 308 311 311 312 311 300 310
223 252 267 289 39 308 286 350 323 340 355 347 323 314 306 317 313 309 308 307 309 308 311 312 313 311 308 306 304 306 307 297 292 282 282 290 298 309 310 312 315 307 309 311
213 245 268 184 221 156 298 308 348 15 358 330 302 301 306 311 313 312 312 314 315 315 312 312 315 315 311 310 314 316 309 300 289 284 281 293 298 308 310 313 312 311 310 312
200 234 304 292 283 321 316 350 346 341 308 294 305 314 318 314 314 318 318 316 314 312 313 315 317 318 316 314 311 304 304 296 291 297 280 284 300 308 312 314 313 310 315 315
282 267 293 311 327 48 29 346 309 304 302 310 312 314 314 318 320 320 318 316 314 315 316 316 319 319 316 314 309 310 310 310 305 297 289 290 299 307 309 310 310 317 318 317
260 289 322 335 57 8 321 309 301 312 313 311 314 317 319 319 319 318 317 318 317 316 314 315 318 318 317 315 310 311 313 311 309 296 291 292 298 306 305 305 307 318 320 317
268 308 202 297 293 322 284 280 325 317 318 317 317 316 317 316 318 319 319 317 315 315 314 315 316 316 314 310 307 313 311 312 304 297 291 288 301 304 308 310 314 324 327 327
300 308 276 249 309 218 264 317 321 319 318 316 317 315 313 312 314 316 315 316 316 314 312 313 313 310 311 296 310 312 312 304 295 287 288 293 304 306 311 314 320 327 325 328
269 169 118 168 245 215 312 321 317 314 314 316 317 316 316 315 314 316 316 316 313 310 309 312 314 307 289 306 294 303 314 313 315 296 291 286 296 305 312 315 324 328 326 325
131 163 233 176 181 293 315 318 316 315 316 316 318 318 318 319 318 317 314 312 308 311 315 312 308 298 294 302 305 310 313 293 293 289 288 303 315 310 313 317 322 323 323 325
152 151 161 216 312 318 318 316 313 314 317 318 320 322 320 317 315 312 314 312 306 315 312 318 312 303 296 296 299 298 290 298 303 290 298 306 306 308 314 315 320 321 322 319
168 193 246 304 309 308 308 310 312 314 318 321 319 319 321 322 321 321 319 318 315 313 313 317 306 292 287 304 292 289 283 283 290 292 291 296 308 312 304 310 316 319 319 313
158 171 280 295 300 303 305 311 314 312 314 317 318 320 322 323 323 324 326 323 314 313 311 314 297 290 295 290 272 282 282 281 279 276 284 295 300 305 305 309 312 315 315 317
207 279 293 299 303 301 304 309 307 309 316 321 320 319 318 320 324 325 327 323 320 313 310 306 296 290 300 287 291 288 288 286 274 278 283 291 308 305 305 303 304 309 311 313
292 298 296 297 296 301 305 308 308 311 319 318 315 313 318 322 323 326 328 322 315 306 304 293 285 296 299 292 295 287 284 297 284 278 284 290 302 303 302 300 306 311 311 307
303 304 304 305 302 301 304 307 307 310 315 316 312 314 319 321 322 327 326 319 319 310 297 278 281 285 284 284 288 287 298 301 288 286 285 286 293 303 303 299 304 306 306 303
301 300 302 301 298 303 308 309 311 311 311 311 313 317 322 323 328 322 321 319 319 302 286 277 281 277 272 287 283 268 285 295 284 281 284 287 289 290 295 295 296 296 297 298
297 296 295 297 302 304 306 308 309 313 315 316 314 318 322 327 327 321 319 319 314 290 274 272 273 273 286 292 302 274 276 287 287 285 286 285 291 298 296 298 296 295 293 294
293 292 294 300 300 299 302 311 304 312 318 322 320 311 320 326 318 317 313 309 303 275 271 272 278 285 283 285 293 279 271 273 275 276 274 276 281 294 295 297 301 303 302 301
294 296 297 302 299 295 297 300 306 315 306 310 310 315 318 322 315 312 309 308 287 275 276 280 283 295 287 275 280 277 272 273 275 271 272 276 273 274 278 285 291 295 302 302
297 290 288 286 281 282 288 301 303 306 310 315 313 313 316 319 316 314 313 307 288 281 277 276 280 287 300 291 282 277 276 274 271 274 276 279 277 276 274 275 280 288 291 298
296 293 292 290 286 282 287 294 303 313 315 315 310 311 310 313 313 306 306 308 298 288 284 281 280 283 288 293 274 272 276 274 272 272 280 285 280 273 273 276 279 279 281 286